Toronto, Ontario

12:47 AM EST on November 18, 2017 (GMT -0500)
Toronto

Weather History for CYTZ - November, 2012

Change the Weather History Date:

Tuesday, November 27, 2012

  Actual Average Record
Temperature  
Mean Temperature 34 °F -  
Max Temperature 39 °F 36 °F 51 °F (2006)
Min Temperature 30 °F 25 °F 19 °F (1996)
Degree Days  
Heating Degree Days 30    
Moisture  
Dew Point 22 °F    
Average Humidity 58    
Maximum Humidity 70    
Minimum Humidity 35    
Precipitation  
Precipitation 0.00 in 0.10 in - ()
Sea Level Pressure  
Sea Level Pressure 30.27 in    
Wind  
Wind Speed 7 mph ()    
Max Wind Speed 17 mph    
Max Gust Speed -    
Visibility 9.0 miles    
Events Rain    
Averages and records for this station are not official NWS values.
T = Trace of Precipitation, MM = Missing Value Source: Averaged Metar Reports

Daily Weather History Graph

Daily Weather History Graph

Search for Another Location

Airport or City:

Trip Planner

Search our weather history database for the weather conditions in past years. The results will help you decide how hot, cold, wet, or windy it might be!

Date:

Astronomy

Nov. 27, 2012 Rise Set
Actual Time 7:27 AM EST 4:43 PM EST
Civil Twilight 6:55 AM EST 5:15 PM EST
Nautical Twilight 6:19 AM EST 5:50 PM EST
Astronomical Twilight 5:45 AM EST 6:25 PM EST
Moon 4:14 PM EST (11/27) 6:29 AM EST (11/27)
Length of Visible Light 10h 20m
Length of Day
9h 16m
Waxing Gibbous, 99% of the Moon is Illuminated
Nov 27
Waxing Gibbous
Nov 28
Full
Dec 6
Last Quarter
Dec 13
New
Dec 20
First Quarter

Hourly Weather History & Observations

Time (EST) Temp. Windchill Dew Point Humidity Pressure Visibility Wind Dir Wind Speed Gust Speed Precip Events Conditions
12:00 AM 32.0 °F 24.2 °F 21.2 °F 64% 30.24 in 9.0 mi West 9.2 mph - N/A   Mostly Cloudy
1:00 AM 31 °F - 22 °F 58% 30.24 in 10 mi WNW 8.1 mph - -  
2:00 AM 32.0 °F 24.8 °F 23.0 °F 69% 30.25 in 9.0 mi WNW 8.1 mph - N/A   Overcast
3:00 AM 32.0 °F 26.4 °F 23.0 °F 69% 30.25 in 9.0 mi West 5.8 mph - N/A   Overcast
4:00 AM 32.0 °F 27.5 °F 23.0 °F 69% 30.25 in 9.0 mi WNW 4.6 mph - N/A   Overcast
5:00 AM 33.8 °F 27.0 °F 24.8 °F 70% 30.25 in 9.0 mi WNW 8.1 mph - N/A   Overcast
6:00 AM 33.8 °F 25.8 °F 24.8 °F 70% 30.25 in 9.0 mi NW 10.4 mph - N/A   Overcast
7:00 AM 33 °F - 25 °F 63% 30.27 in 10 mi NW 8.1 mph - -   Overcast
7:00 AM 33.8 °F 27.0 °F 24.8 °F 70% 30.26 in 9.0 mi NW 8.1 mph - N/A   Overcast
8:00 AM 33.8 °F 27.0 °F 24.8 °F 70% 30.28 in 9.0 mi NW 8.1 mph - N/A   Overcast
9:00 AM 33.8 °F 25.8 °F 23.0 °F 65% 30.30 in 9.0 mi WNW 10.4 mph - N/A   Mostly Cloudy
10:00 AM 35.6 °F 28.6 °F 21.2 °F 56% 30.30 in 9.0 mi West 9.2 mph - N/A   Clear
11:00 AM 39.2 °F 33.0 °F 21.2 °F 49% 30.31 in 9.0 mi WSW 9.2 mph - N/A   Mostly Cloudy
12:00 PM 37.4 °F 30.8 °F 21.2 °F 52% 30.30 in 9.0 mi West 9.2 mph - N/A   Unknown
1:00 PM 37 °F - 19 °F 35% 30.28 in 10 mi WNW 5.8 mph - -   Overcast
1:00 PM 37.4 °F 32.8 °F 19.4 °F 48% 30.28 in 9.0 mi WNW 5.8 mph - N/A   Overcast
2:00 PM 37.4 °F 32.8 °F 21.2 °F 52% 30.27 in 9.0 mi WNW 5.8 mph - N/A   Overcast
3:00 PM 37.4 °F 32.8 °F 21.2 °F 52% 30.27 in 9.0 mi NW 5.8 mph - N/A   Overcast
3:52 PM 35.6 °F - 21.2 °F 56% 30.27 in 9.0 mi Variable 2.3 mph - N/A Rain Light Rain
4:00 PM 37.4 °F 34.9 °F 21.2 °F 52% 30.27 in 9.0 mi Variable 3.5 mph - N/A Rain Light Rain
4:02 PM 37.4 °F 32.8 °F 21.2 °F 52% 30.27 in 9.0 mi Variable 5.8 mph - N/A   Overcast
5:00 PM 35.6 °F 27.5 °F 21.2 °F 56% 30.27 in 9.0 mi West 11.5 mph - N/A   Overcast
7:00 PM 35 °F - 19 °F 39% 30.28 in 10 mi West 10.4 mph - -   Overcast
7:00 PM 35.6 °F 27.1 °F 19.4 °F 52% 30.28 in 9.0 mi West 12.7 mph - N/A   Overcast
8:00 PM 33.8 °F 25.3 °F 19.4 °F 56% 30.28 in 9.0 mi West 11.5 mph - N/A   Clear
9:00 PM 33.8 °F 27.0 °F 17.6 °F 52% 30.28 in 9.0 mi WSW 8.1 mph - N/A   Mostly Cloudy
10:00 PM 33.8 °F 25.8 °F 19.4 °F 56% 30.26 in 9.0 mi SSW 10.4 mph - N/A   Scattered Clouds
11:00 PM 35.6 °F 27.1 °F 21.2 °F 56% 30.26 in 9.0 mi WSW 12.7 mph - N/A   Overcast
11:58 PM 35.6 °F 25.5 °F 23.0 °F 60% 30.25 in 5.0 mi WSW 17.3 mph - N/A   Haze